Regional Weather Roundup
Issued by NWS

Home | Current Version | Previous Version | Graphics & Text | Print | Product List | Glossary On
Versions: 1 2 3 4 5 6 7 8 9 10 11 12 13 14 15 16 17 18 19 20 21 22 23 24 25 26 27 28 29 30 31 32 33 34 35 36 37 38 39 40 41 42 43 44 45 46 47 48 49 50
000
ASUS45 KBOI 010010
RWRID

IDAHO REGIONAL WEATHER ROUNDUP
NATIONAL WEATHER SERVICE BOISE ID
600 PM MDT SUN APR 30 2017

NOTE: "FAIR" INDICATES FEW OR NO CLOUDS BELOW 12000 FEET
WITH NO SIGNIFICANT WEATHER AND/OR OBSTRUCTIONS TO VISIBILITY

IDZ012-014-010100-
SOUTHWEST IDAHO


CITY           SKY/WX    TMP DP  RH WIND       PRES   REMARKS
BOISE          MOSUNNY   64  37  36 N14       30.05S
CALDWELL       CLOUDY    65  41  41 CALM      30.04F
MOUNTAIN HOME  MOSUNNY   66  38  35 NW18G24   30.04F
$$

IDZ016-017-010100-
SOUTHCENTRAL IDAHO


CITY           SKY/WX    TMP DP  RH WIND       PRES   REMARKS
BURLEY         MOSUNNY   59  35  40 W18G28    30.03F
JEROME         SUNNY     61  37  41 W21G29    30.05F
TWIN FALLS     PTSUNNY   60  39  45 W18       30.06F
$$

IDZ019>023-010100-
SOUTHEAST IDAHO


CITY           SKY/WX    TMP DP  RH WIND       PRES   REMARKS
IDAHO FALLS    CLOUDY    57  35  43 SW13      30.00F
POCATELLO      CLOUDY    57  39  51 SW18      30.02F
REXBURG        PTSUNNY   58  31  35 SW18      29.98F
$$

IDZ006-010-011-018-031-032-010100-
CENTRAL IDAHO MOUNTAINS


CITY           SKY/WX    TMP DP  RH WIND       PRES   REMARKS
MCCALL         CLOUDY    47  35  63 N7        30.07R
HAILEY         MOSUNNY   57  28  33 W17G29    30.02F
STANLEY          N/A     44  28  53 N8        30.10R
SALMON         CLOUDY   N/A N/A N/A MISG        N/A
CHALLIS        CLOUDY    55  25  31 W7G25     30.02S
$$

IDZ002-004-006-007-026-010100-
NORTHERN IDAHO


CITY           SKY/WX    TMP DP  RH WIND       PRES   REMARKS
LEWISTON       SUNNY     63  28  26 W18G35    30.05R
LOWELL           N/A     59  46  62 VRB3      30.04R
COEUR D`ALENE  NOT AVBL
MULLAN PASS    FLURRIES  36  32  85 W8G20     30.03R WCI  30
$$



USA.gov is the U.S. government's official web portal to all federal, state and local government web resources and services.